1495562400.71,22358,16.06,73984.3,1.47,-3.35,-2.47,0,*75
1495562401.96,22359,16.06,73986.5,1.47,-3.35,-2.51,0,*73
1495562403.18,22360,16.06,73986.5,1.45,-3.39,-2.47,0,*70
1495562404.44,22361,16.06,73986.5,1.47,-3.35,-2.47,0,*7F
1495562405.69,22362,16.06,73984.3,1.47,-3.39,-2.51,0,*77
1495562406.94,22363,16.06,73986.0,1.47,-3.39,-2.51,0,*76
1495562408.19,22364,16.06,73984.3,1.47,-3.35,-2.47,0,*7A
1495562409.44,22365,16.06,73986.3,1.47,-3.39,-2.47,0,*77
1495562410.69,22366,16.06,73984.3,1.47,-3.35,-2.47,0,*78
1495562411.92,22367,16.06,73984.3,1.45,-3.39,-2.51,0,*70
1495562413.17,22368,16.06,73986.0,1.47,-3.35,-2.47,0,*76
1495562414.43,22369,16.06,73984.0,1.47,-3.35,-2.51,0,*70
1495562415.68,22370,16.06,73986.0,1.47,-3.27,-2.51,0,*7B
1495562416.93,22371,16.06,73986.3,1.47,-3.35,-2.47,0,*7E
1495562418.16,22372,16.06,73984.8,1.45,-3.39,-2.51,0,*74
1495562419.41,22373,16.06,73986.0,1.47,-3.27,-2.47,0,*7F
1495562420.66,22374,16.06,73984.5,1.47,-3.39,-2.47,0,*77
1495562421.91,22375,16.06,73984.3,1.47,-3.27,-2.47,0,*79
1495562423.13,22376,16.06,73986.8,1.47,-3.27,-2.43,0,*7E
1495562424.35,22377,16.06,73984.3,1.47,-3.27,-2.43,0,*7F
1495562425.6,22378,16.06,73984.0,1.47,-3.27,-2.47,0,*74
1495562426.83,22379,16.06,73984.5,1.45,-3.39,-2.51,0,*7F
1495562428.09,22380,16.06,73984.3,1.47,-3.35,-2.51,0,*77
1495562429.34,22381,16.06,73984.5,1.47,-3.27,-2.51,0,*75
1495562430.59,22382,16.06,73984.5,1.47,-3.27,-2.47,0,*71
1495562431.83,22383,16.06,73984.5,1.47,-3.23,-2.47,0,*74
1495562433.09,22384,16.06,73990.0,1.47,-3.27,-2.51,0,*70
1495562434.34,22385,16.06,73990.0,1.47,-3.27,-2.47,0,*76
1495562435.56,22386,16.06,73984.5,1.47,-3.27,-2.43,0,*71
1495562436.81,22387,16.06,73984.0,1.47,-3.27,-2.47,0,*74
1495562438.05,22388,16.06,73984.3,1.47,-3.23,-2.47,0,*7F
1495562439.27,22389,16.06,73990.8,1.47,-3.23,-2.43,0,*7A
1495562440.49,22390,16.06,73986.5,1.47,-3.27,-2.43,0,*76
1495562441.7,22391,16.06,73986.8,1.47,-3.23,-2.35,0,*72
1495562442.95,22392,16.06,73986.0,1.47,-3.27,-2.47,0,*70
1495562444.17,22393,16.06,73988.0,1.47,-3.19,-2.43,0,*78
1495562445.42,22394,16.06,73984.5,1.47,-3.27,-2.47,0,*76
1495562446.64,22395,16.06,73984.5,1.47,-3.23,-2.43,0,*77
1495562447.85,22396,16.06,73984.5,1.47,-3.19,-2.43,0,*7D
1495562449.06,22397,16.06,73984.8,1.47,-3.23,-2.43,0,*75
1495562450.25,22398,16.06,73984.0,1.49,-3.19,-2.43,0,*7D
1495562451.44,22399,16.06,73986.0,1.49,-3.23,-2.43,0,*75
1495562452.62,22400,16.06,73988.5,1.49,-3.23,-2.43,0,*72
1495562453.81,22401,16.06,73984.0,1.49,-3.23,-2.43,0,*73
1495562454.99,22402,16.06,73984.8,1.49,-3.23,-2.43,0,*70
1495562456.21,22403,16.06,73984.3,1.49,-3.19,-2.47,0,*7C
1495562457.41,22404,16.06,73988.0,1.49,-3.11,-2.35,0,*76
1495562458.62,22405,16.06,73988.8,1.51,-3.19,-2.43,0,*77
1495562459.84,22406,16.06,73984.0,1.49,-3.23,-2.47,0,*70
1495562461.02,22407,16.06,73984.5,1.49,-3.23,-2.43,0,*75
1495562462.23,22408,16.06,73984.8,1.47,-3.23,-2.43,0,*74
1495562463.43,22409,16.06,73986.5,1.49,-3.27,-2.43,0,*7F
1495562464.62,22410,16.06,73988.3,1.49,-3.23,-2.35,0,*72
1495562465.83,22411,16.06,73986.8,1.49,-3.23,-2.47,0,*76
1495562467.06,22412,16.06,73982.8,1.49,-3.27,-2.51,0,*76
1495562468.25,22413,16.06,73986.5,1.49,-3.19,-2.35,0,*78
1495562469.44,22414,16.06,73984.8,1.49,-3.19,-2.43,0,*7E
1495562470.63,22415,16.06,73984.8,1.49,-3.19,-2.43,0,*7F
1495562471.81,22416,16.06,73986.5,1.49,-3.19,-2.43,0,*7C
1495562473.0,22417,16.06,73986.0,1.49,-3.19,-2.43,0,*7D
1495562474.19,22418,16.06,73988.0,1.49,-3.23,-2.43,0,*7B
1495562475.38,22419,16.06,73986.8,1.49,-3.19,-2.43,0,*73
1495562476.6,22420,16.06,73984.0,1.51,-3.15,-2.31,0,*79
1495562477.79,22421,16.06,73984.5,1.49,-3.11,-2.43,0,*70
1495562479.01,22422,16.06,73986.8,1.51,-3.15,-2.39,0,*73
1495562480.2,22423,16.06,73988.5,1.49,-3.11,-2.43,0,*72
1495562481.42,22424,16.06,73984.5,1.49,-3.23,-2.47,0,*70
1495562482.64,22425,16.06,73984.0,1.49,-3.19,-2.47,0,*78
1495562483.83,22426,16.06,73984.5,1.49,-3.11,-2.35,0,*76
1495562485.02,22427,16.06,73986.3,1.49,-3.19,-2.31,0,*7B
1495562486.21,22428,16.06,73988.3,1.49,-3.19,-2.43,0,*71
1495562487.4,22429,16.06,73986.8,1.49,-3.11,-2.43,0,*78
1495562488.62,22430,16.06,73986.8,1.51,-3.15,-2.43,0,*7D
1495562489.81,22431,16.06,73984.8,1.49,-3.19,-2.43,0,*79
1495562491.03,22432,16.06,73986.0,1.51,-3.15,-2.39,0,*72
1495562492.23,22433,16.06,73984.8,1.49,-3.07,-2.31,0,*71
1495562493.41,22434,16.06,73986.8,1.49,-3.19,-2.43,0,*7C
1495562494.61,22435,16.06,73984.5,1.49,-3.11,-2.35,0,*74
1495562495.8,22436,16.06,73986.3,1.49,-3.11,-2.35,0,*77
1495562496.99,22437,16.06,73984.0,1.49,-3.11,-2.43,0,*77
1495562498.18,22438,16.06,73984.8,1.49,-3.11,-2.43,0,*78
1495562499.4,22439,16.06,73984.0,1.51,-3.07,-2.31,0,*72
1495562500.59,22440,16.06,73986.5,1.49,-3.11,-2.43,0,*77
1495562501.78,22441,16.06,73982.8,1.49,-3.11,-2.35,0,*77
1495562503.0,22442,16.06,73986.3,1.49,-3.11,-2.51,0,*76
1495562504.19,22443,16.06,73986.0,1.49,-3.19,-2.43,0,*7C
1495562505.41,22444,16.06,73986.0,1.51,-3.07,-2.43,0,*7D
1495562506.59,22445,16.06,73984.8,1.49,-3.07,-2.43,0,*75
1495562507.81,22446,16.06,73984.5,1.49,-3.11,-2.47,0,*75
1495562509.04,22447,16.06,73984.0,1.49,-3.11,-2.51,0,*73
1495562510.26,22448,16.06,73980.3,1.49,-3.11,-2.51,0,*7C
1495562511.47,22449,16.06,73984.8,1.51,-3.07,-2.43,0,*70
1495562512.69,22450,16.06,73986.3,1.49,-3.11,-2.47,0,*72
1495562513.94,22451,16.06,73980.8,1.47,-3.07,-2.47,0,*7A
1495562515.15,22452,16.06,73984.8,1.51,-3.07,-2.43,0,*7A
1495562516.35,22453,16.06,73986.0,1.49,-2.95,-2.43,0,*78
1495562517.57,22454,16.06,73982.0,1.49,-3.07,-2.47,0,*71
1495562518.79,22455,16.06,73984.5,1.49,-3.11,-2.51,0,*70
1495562520.01,22456,16.06,73982.8,1.49,-3.11,-2.47,0,*74
1495562521.23,22457,16.06,73986.0,1.49,-3.07,-2.47,0,*72
1495562522.42,22458,16.06,73980.5,1.49,-2.99,-2.43,0,*7F
1495562523.64,22459,16.06,73980.5,1.51,-2.95,-2.39,0,*76
1495562524.83,22460,16.06,73982.8,1.49,-2.99,-2.43,0,*74
1495562526.02,22461,16.06,73982.0,1.49,-2.99,-2.35,0,*74
1495562527.21,22462,16.06,73980.8,1.49,-2.99,-2.43,0,*76
1495562528.4,22463,16.06,73982.0,1.49,-2.99,-2.43,0,*77
1495562529.59,22464,16.06,73984.5,1.49,-3.07,-2.43,0,*76
1495562530.77,22465,16.06,73980.3,1.49,-2.99,-2.43,0,*71
1495562531.97,22466,16.06,73984.5,1.49,-2.99,-2.39,0,*7F
1495562533.16,22467,16.06,73982.0,1.49,-2.95,-2.43,0,*7F
1495562534.38,22468,16.06,73980.5,1.51,-2.91,-2.39,0,*70
1495562535.56,22469,16.06,73980.3,1.49,-2.99,-2.43,0,*7D
1495562536.79,22470,16.06,73982.5,1.51,-2.95,-2.39,0,*7D
1495562538.01,22471,16.06,73982.3,1.51,-2.83,-2.31,0,*73
1495562539.22,22472,16.06,73986.3,1.51,-2.83,-2.19,0,*7A
1495562540.42,22473,16.06,73982.8,1.49,-2.95,-2.31,0,*7F
1495562541.62,22474,16.06,73982.8,1.49,-2.95,-2.43,0,*7D
1495562542.83,22475,16.06,73984.8,1.51,-2.91,-2.39,0,*7C
1495562544.05,22476,16.06,73986.8,1.51,-2.91,-2.31,0,*77
1495562545.27,22477,16.06,73986.8,1.51,-2.91,-2.31,0,*76
1495562546.48,22478,16.06,73986.0,1.51,-2.91,-2.39,0,*71
1495562547.7,22479,16.06,73988.8,1.51,-2.91,-2.39,0,*70
1495562548.94,22480,16.06,73984.8,1.51,-2.99,-2.47,0,*77
1495562550.16,22481,16.06,73984.0,1.51,-2.95,-2.43,0,*7E
1495562551.38,22482,16.06,73984.8,1.51,-2.91,-2.39,0,*74
1495562552.59,22483,16.06,73986.5,1.51,-2.91,-2.39,0,*75
1495562553.82,22484,16.06,73984.8,1.49,-2.95,-2.47,0,*76
1495562555.01,22485,16.06,73984.3,1.49,-2.95,-2.43,0,*73
1495562556.23,22486,16.06,73984.0,1.51,-2.83,-2.31,0,*7B
1495562557.44,22487,16.06,73984.0,1.51,-2.91,-2.39,0,*71
1495562558.63,22488,16.06,73984.5,1.49,-2.91,-2.43,0,*7A
1495562559.87,22489,16.06,73986.0,1.51,-2.91,-2.47,0,*76
1495562561.11,22490,16.06,73984.0,1.51,-2.91,-2.47,0,*7E
1495562562.3,22491,16.06,73984.0,1.49,-2.91,-2.39,0,*7F
1495562563.51,22492,16.06,73986.0,1.51,-2.91,-2.39,0,*75
1495562564.71,22493,16.06,73984.5,1.49,-2.95,-2.43,0,*74
1495562565.9,22494,16.06,73984.8,1.49,-2.95,-2.43,0,*73
1495562567.12,22495,16.06,73986.0,1.51,-2.91,-2.31,0,*7A
1495562568.31,22496,16.06,73988.0,1.49,-2.87,-2.43,0,*72
1495562569.53,22497,16.06,73984.5,1.51,-2.83,-2.31,0,*7B
1495562570.74,22498,16.06,73984.0,1.51,-2.91,-2.31,0,*77
1495562571.94,22499,16.06,73986.0,1.49,-2.87,-2.35,0,*7C
1495562573.15,22500,16.06,73986.8,1.51,-2.91,-2.43,0,*72
1495562574.33,22501,16.06,73986.3,1.49,-2.87,-2.43,0,*7D
1495562575.55,22502,16.06,73986.5,1.51,-2.83,-2.39,0,*7E
1495562576.76,22503,16.06,73984.3,1.51,-2.83,-2.39,0,*7F
1495562577.98,22504,16.06,73986.5,1.51,-2.91,-2.39,0,*7B
1495562579.22,22505,16.06,73984.3,1.51,-2.83,-2.47,0,*70
1495562580.43,22506,16.06,73982.3,1.51,-2.83,-2.43,0,*77
1495562581.62,22507,16.06,73984.8,1.49,-2.83,-2.43,0,*7F
1495562582.83,22508,16.06,73986.3,1.51,-2.91,-2.39,0,*77
1495562584.04,22509,16.06,73984.3,1.51,-2.83,-2.43,0,*78
1495562585.26,22510,16.06,73986.8,1.51,-2.91,-2.43,0,*73
1495562586.5,22511,16.06,73988.0,1.51,-2.91,-2.47,0,*76
1495562587.71,22512,16.06,73986.5,1.51,-2.83,-2.43,0,*72
1495562588.92,22513,16.06,73982.0,1.51,-2.91,-2.43,0,*70
1495562590.13,22514,16.06,73984.3,1.51,-2.83,-2.43,0,*74
1495562591.35,22515,16.06,73986.5,1.49,-2.87,-2.51,0,*7B
1495562592.56,22516,16.06,73984.0,1.51,-2.91,-2.43,0,*75
1495562593.77,22517,16.06,73984.3,1.51,-2.91,-2.43,0,*74
1495562595.01,22518,16.06,73986.0,1.51,-2.91,-2.47,0,*7F
1495562596.24,22519,16.06,73982.0,1.49,-2.95,-2.51,0,*74
1495562597.49,22520,16.06,73986.3,1.51,-2.95,-2.59,0,*7F
1495562598.74,22521,16.06,73982.5,1.51,-2.95,-2.55,0,*72
1495562599.96,22522,16.06,73982.5,1.49,-2.99,-2.59,0,*78
1495562601.17,22523,16.06,73984.8,1.49,-2.99,-2.59,0,*79
1495562602.43,22524,16.06,73980.3,1.51,-2.95,-2.47,0,*74
1495562603.68,22525,16.06,73984.3,1.51,-2.95,-2.55,0,*76
1495562604.93,22526,16.06,73986.3,1.51,-2.95,-2.55,0,*75
1495562606.15,22527,16.06,73984.5,1.49,-2.99,-2.51,0,*75
1495562607.38,22528,16.06,73984.5,1.49,-2.95,-2.51,0,*76
1495562608.59,22529,16.06,73982.5,1.51,-2.83,-2.43,0,*7A
1495562609.77,22530,16.06,73986.8,1.49,-2.91,-2.43,0,*78
1495562611.0,22531,16.06,73984.8,1.49,-2.95,-2.51,0,*7E
1495562612.22,22532,16.06,73982.5,1.49,-2.87,-2.47,0,*79
1495562613.44,22533,16.06,73986.8,1.51,-2.83,-2.39,0,*7C
1495562614.62,22534,16.06,73982.3,1.49,-2.87,-2.43,0,*7B
1495562615.84,22535,16.06,73982.5,1.51,-2.83,-2.39,0,*7A
1495562617.05,22536,16.06,73986.3,1.51,-2.83,-2.39,0,*79
1495562618.27,22537,16.06,73982.0,1.51,-2.83,-2.39,0,*78
1495562619.48,22538,16.06,73982.8,1.51,-2.83,-2.39,0,*77
1495562620.7,22539,16.06,73980.0,1.51,-2.79,-2.39,0,*73
1495562621.91,22540,16.06,73980.3,1.51,-2.83,-2.43,0,*75
1495562623.12,22541,16.06,73984.0,1.51,-2.83,-2.43,0,*74
1495562624.31,22542,16.06,73982.8,1.49,-2.83,-2.43,0,*7E
1495562625.52,22543,16.06,73980.8,1.51,-2.83,-2.39,0,*7B
1495562626.74,22544,16.06,73980.8,1.51,-2.79,-2.31,0,*71
1495562627.96,22545,16.06,73980.3,1.51,-2.79,-2.39,0,*78
1495562629.18,22546,16.06,73984.8,1.51,-2.79,-2.39,0,*7B
1495562630.37,22547,16.06,73984.0,1.49,-2.83,-2.35,0,*7A
1495562631.58,22548,16.06,73982.5,1.49,-2.83,-2.47,0,*70
1495562632.77,22549,16.06,73984.3,1.49,-2.79,-2.43,0,*70
1495562634.01,22550,16.06,73982.0,1.51,-2.71,-2.39,0,*74
1495562635.26,22551,16.06,73986.5,1.51,-2.71,-2.31,0,*7D
1495562636.48,22552,16.06,73986.8,1.51,-2.79,-2.43,0,*73
1495562637.72,22553,16.06,73984.8,1.51,-2.79,-2.47,0,*76
1495562638.93,22554,16.06,73984.0,1.49,-2.75,-2.43,0,*70
1495562640.13,22555,16.06,73984.3,1.49,-2.79,-2.39,0,*70
1495562641.31,22556,16.06,73980.3,1.49,-2.83,-2.43,0,*7B
1495562642.52,22557,16.06,73984.3,1.49,-2.71,-2.43,0,*77
1495562643.74,22558,16.06,73984.8,1.51,-2.79,-2.39,0,*74
1495562644.99,22559,16.06,73980.3,1.49,-2.75,-2.47,0,*79
1495562646.18,22560,16.06,73982.8,1.49,-2.79,-2.43,0,*7B
1495562647.36,22561,16.06,73982.8,1.49,-2.83,-2.43,0,*7F
1495562648.61,22562,16.06,73988.3,1.49,-2.75,-2.51,0,*76
1495562649.82,22563,16.06,73982.8,1.49,-2.83,-2.47,0,*79
1495562651.06,22564,16.06,73980.5,1.51,-2.71,-2.43,0,*7E
1495562652.28,22565,16.06,73980.3,1.49,-2.75,-2.43,0,*72
1495562653.52,22566,16.06,73982.0,1.49,-2.75,-2.47,0,*75
1495562654.76,22567,16.06,73980.3,1.49,-2.75,-2.47,0,*74
1495562655.98,22568,16.06,73980.3,1.49,-2.83,-2.47,0,*72
1495562657.22,22569,16.06,73980.0,1.51,-2.71,-2.43,0,*73
1495562658.46,22570,16.06,73986.5,1.51,-2.67,-2.43,0,*7C
1495562659.7,22571,16.06,73980.0,1.49,-2.75,-2.47,0,*73
1495562660.95,22572,16.06,73984.5,1.49,-2.75,-2.47,0,*70
1495562662.16,22573,16.06,73980.0,1.49,-2.75,-2.43,0,*75
1495562663.38,22574,16.06,73984.0,1.51,-2.79,-2.39,0,*7A
1495562664.59,22575,16.06,73980.0,1.49,-2.75,-2.35,0,*72
1495562665.81,22576,16.06,73980.8,1.49,-2.75,-2.43,0,*70
1495562667.05,22577,16.06,73980.0,1.51,-2.71,-2.39,0,*71
1495562668.26,22578,16.06,73986.5,1.49,-2.75,-2.43,0,*7E
1495562669.51,22579,16.06,73982.8,1.49,-2.75,-2.51,0,*7C
1495562670.73,22580,16.06,73980.8,1.49,-2.83,-2.47,0,*74
1495562671.97,22581,16.06,73982.8,1.51,-2.71,-2.43,0,*75
1495562673.21,22582,16.06,73982.5,1.49,-2.75,-2.47,0,*7F
1495562674.43,22583,16.06,73982.0,1.49,-2.83,-2.47,0,*77
1495562675.67,22584,16.06,73984.3,1.49,-2.75,-2.51,0,*7E
1495562676.92,22585,16.06,73986.3,1.49,-2.75,-2.51,0,*7F
1495562678.17,22586,16.06,73984.0,1.49,-2.75,-2.51,0,*7C
1495562679.38,22587,16.06,73980.3,1.49,-2.83,-2.59,0,*7C
1495562680.59,22588,16.06,73984.0,1.49,-2.83,-2.51,0,*7B
1495562681.81,22589,16.06,73980.5,1.49,-2.83,-2.51,0,*7A
1495562683.03,22590,16.06,73982.5,1.49,-2.87,-2.47,0,*71
1495562684.24,22591,16.06,73982.5,1.49,-2.83,-2.59,0,*7B
1495562685.46,22592,16.06,73982.8,1.49,-2.87,-2.59,0,*7C
1495562686.7,22593,16.06,73980.3,1.47,-2.87,-2.59,0,*73
1495562687.95,22594,16.06,73982.0,1.47,-2.83,-2.51,0,*78
1495562689.19,22595,16.06,73982.3,1.47,-2.83,-2.51,0,*79
1495562690.44,22596,16.06,73986.5,1.47,-2.87,-2.51,0,*7E
1495562691.66,22597,16.06,73982.0,1.49,-2.83,-2.51,0,*75
1495562692.93,22598,16.06,73982.5,1.47,-2.75,-2.51,0,*7D
1495562694.17,22599,16.06,73984.3,1.47,-2.83,-2.59,0,*7D
1495562695.42,22600,16.06,73986.5,1.47,-2.87,-2.63,0,*73
1495562696.69,22601,16.06,73982.5,1.47,-2.75,-2.47,0,*79
1495562697.96,22602,16.06,73980.8,1.47,-2.75,-2.47,0,*7A
1495562699.21,22603,16.06,73982.5,1.47,-2.71,-2.35,0,*7A
1495562700.45,22604,16.06,73982.0,1.47,-2.71,-2.43,0,*7C
1495562701.69,22605,16.06,73980.5,1.47,-2.71,-2.35,0,*7C
1495562702.94,22606,16.06,73980.8,1.47,-2.63,-2.43,0,*7D
1495562704.18,22607,16.06,73980.5,1.47,-2.71,-2.35,0,*7E
1495562705.43,22608,16.06,73978.8,1.47,-2.63,-2.43,0,*73
1495562706.64,22609,16.06,73980.3,1.45,-2.67,-2.39,0,*79
1495562707.89,22610,16.06,73978.8,1.47,-2.63,-2.43,0,*7A
1495562709.13,22611,16.06,73982.3,1.47,-2.71,-2.43,0,*78
1495562710.37,22612,16.06,73982.0,1.47,-2.71,-2.43,0,*7B
1495562711.59,22613,16.06,73978.8,1.49,-2.63,-2.43,0,*77
1495562712.83,22614,16.06,73980.8,1.47,-2.71,-2.43,0,*7D
1495562714.08,22615,16.06,73984.0,1.47,-2.71,-2.35,0,*7D
1495562715.32,22616,16.06,73982.5,1.47,-2.63,-2.43,0,*7C
1495562716.53,22617,16.06,73982.5,1.49,-2.59,-2.43,0,*7A
1495562717.75,22618,16.06,73982.5,1.49,-2.51,-2.31,0,*78
1495562719.0,22619,16.06,73980.8,1.47,-2.47,-2.23,0,*73
1495562720.24,22620,16.06,73982.8,1.47,-2.51,-2.35,0,*79
1495562721.48,22621,16.06,73982.8,1.47,-2.59,-2.43,0,*71
1495562722.73,22622,16.06,73980.8,1.47,-2.63,-2.35,0,*7A
1495562723.98,22623,16.06,73984.0,1.49,-2.63,-2.47,0,*70
1495562725.19,22624,16.06,73982.8,1.49,-2.63,-2.43,0,*73
1495562726.44,22625,16.06,73980.8,1.47,-2.63,-2.43,0,*7C
1495562727.68,22626,16.06,73976.8,1.47,-2.63,-2.43,0,*7F
1495562728.9,22627,16.06,73980.3,1.49,-2.63,-2.43,0,*70
1495562730.12,22628,16.0,73978.3,1.49,-2.63,-2.43,0,*7F
1495562731.33,22629,16.06,73978.0,1.49,-2.63,-2.43,0,*7E
1495562732.55,22630,16.06,73982.5,1.49,-2.63,-2.35,0,*77
1495562733.77,22631,16.06,73982.0,1.49,-2.51,-2.23,0,*70
1495562735.0,22632,16.06,73980.5,1.49,-2.47,-2.31,0,*77
1495562736.21,22633,16.06,73978.8,1.51,-2.43,-2.19,0,*71
1495562737.46,22634,16.06,73980.8,1.47,-2.59,-2.31,0,*70
1495562738.7,22635,16.06,73980.0,1.47,-2.51,-2.23,0,*7A
1495562739.95,22636,16.06,73982.8,1.47,-2.51,-2.23,0,*79
1495562741.17,22637,16.06,73980.3,1.49,-2.51,-2.23,0,*76
1495562742.41,22638,16.06,73984.3,1.51,-2.55,-2.19,0,*7D
1495562743.63,22639,16.06,73980.3,1.49,-2.51,-2.31,0,*7B
1495562744.85,22640,16.06,73980.5,1.49,-2.59,-2.23,0,*7E
1495562746.07,22641,16.06,73980.8,1.49,-2.51,-2.23,0,*77
1495562747.28,22642,16.06,73980.0,1.49,-2.59,-2.23,0,*7C
1495562748.52,22643,16.06,73978.0,1.51,-2.55,-2.19,0,*71
1495562749.74,22644,16.06,73980.0,1.49,-2.51,-2.31,0,*71
1495562750.96,22645,16.06,73984.0,1.49,-2.59,-2.35,0,*7C
1495562752.19,22646,16.06,73982.5,1.51,-2.59,-2.27,0,*75
1495562753.43,22647,16.06,73980.3,1.51,-2.59,-2.19,0,*79
1495562754.68,22648,16.06,73980.5,1.51,-2.55,-2.19,0,*7A
1495562755.91,22649,16.06,73980.3,1.51,-2.59,-2.19,0,*77
1495562757.15,22650,16.06,73982.5,1.51,-2.59,-2.27,0,*72
1495562758.37,22651,16.06,73980.0,1.49,-2.71,-2.43,0,*72
1495562759.6,22652,16.06,73976.5,1.51,-2.59,-2.27,0,*70
1495562760.84,22653,16.06,73982.5,1.51,-2.59,-2.19,0,*7C
1495562762.08,22654,16.06,73980.5,1.51,-2.55,-2.19,0,*77
1495562763.33,22655,16.06,73978.5,1.51,-2.55,-2.19,0,*76
1495562764.54,22656,16.06,73982.5,1.49,-2.59,-2.23,0,*79
1495562765.76,22657,16.06,73980.5,1.49,-2.47,-2.19,0,*7E
1495562766.98,22658,16.06,73984.8,1.51,-2.43,-2.15,0,*70
1495562768.22,22659,16.06,73980.3,1.51,-2.43,-2.07,0,*72
1495562769.47,22660,16.06,73978.8,1.51,-2.47,-2.15,0,*7F
1495562770.71,22661,16.06,73978.5,1.51,-2.55,-2.15,0,*7D
1495562771.95,22662,16.0,73976.8,1.51,-2.55,-2.15,0,*7E
1495562773.17,22663,16.06,73984.8,1.53,-2.43,-2.03,0,*7D
1495562774.38,22664,16.06,73980.8,1.53,-2.43,-2.11,0,*79
1495562775.57,22665,16.06,73980.3,1.53,-2.43,-2.15,0,*7C
1495562776.79,22666,16.06,73980.3,1.53,-2.51,-2.15,0,*7C
1495562778.03,22667,16.06,73980.3,1.53,-2.51,-2.11,0,*79
1495562779.25,22668,16.0,73976.5,1.53,-2.55,-2.15,0,*76
1495562780.46,22669,16.06,73980.3,1.53,-2.51,-2.15,0,*73
1495562781.68,22670,16.0,73978.0,1.53,-2.55,-2.15,0,*7F
1495562782.92,22671,16.06,73982.5,1.53,-2.51,-2.11,0,*7E
1495562784.19,22672,16.0,73976.5,1.55,-2.51,-2.11,0,*7B
1495562785.43,22673,16.06,73980.8,1.53,-2.51,-2.11,0,*7C
1495562786.65,22674,16.0,73976.0,1.53,-2.55,-2.15,0,*7B
1495562787.9,22675,16.06,73980.0,1.55,-2.55,-2.15,0,*7C
1495562789.14,22676,16.06,73980.0,1.55,-2.63,-2.23,0,*7F
1495562790.36,22677,16.06,73982.5,1.53,-2.55,-2.15,0,*78
1495562791.58,22678,16.06,73982.3,1.53,-2.63,-2.23,0,*77
1495562792.8,22679,16.0,73976.3,1.53,-2.55,-2.15,0,*76
1495562794.02,22680,16.06,73982.0,1.53,-2.51,-2.15,0,*74
1495562795.24,22681,16.0,73978.0,1.53,-2.51,-2.15,0,*75
1495562796.45,22682,16.0,73976.0,1.55,-2.43,-2.15,0,*73
1495562797.69,22683,16.06,73978.5,1.53,-2.51,-2.11,0,*73
1495562798.94,22684,16.06,73982.3,1.53,-2.63,-2.11,0,*75
1495562800.21,22685,16.06,73980.0,1.55,-2.51,-2.11,0,*73
1495562801.45,22686,16.06,73982.0,1.53,-2.55,-2.11,0,*72
1495562802.69,22687,16.06,73980.5,1.53,-2.51,-2.11,0,*77
1495562803.91,22688,16.06,73982.0,1.53,-2.43,-2.11,0,*7B
1495562805.15,22689,16.06,73978.8,1.53,-2.55,-2.11,0,*7D
1495562806.42,22690,16.0,73978.0,1.55,-2.51,-2.11,0,*77
1495562807.69,22691,16.06,73982.8,1.55,-2.55,-2.11,0,*72
1495562808.91,22692,16.0,73978.0,1.53,-2.63,-2.15,0,*76
1495562810.12,22693,16.06,73982.0,1.53,-2.51,-2.15,0,*76
1495562811.34,22694,16.06,73980.8,1.53,-2.51,-2.15,0,*71
1495562812.59,22695,16.06,73980.3,1.55,-2.55,-2.15,0,*72
1495562813.83,22696,16.06,73980.8,1.55,-2.55,-2.15,0,*71
1495562815.08,22697,16.06,73982.0,1.55,-2.63,-2.15,0,*75
1495562816.32,22698,16.0,73976.5,1.55,-2.51,-2.15,0,*7B
1495562817.57,22699,16.06,73980.5,1.55,-2.55,-2.23,0,*7B
1495562818.81,22700,16.06,73978.5,1.55,-2.55,-2.15,0,*7F
1495562820.05,22701,16.06,73980.5,1.55,-2.55,-2.23,0,*7B
1495562821.3,22702,16.0,73978.3,1.55,-2.63,-2.15,0,*78
1495562822.55,22703,16.06,73982.5,1.55,-2.63,-2.23,0,*7C
1495562823.8,22704,16.06,73978.5,1.55,-2.63,-2.23,0,*7B
1495562825.05,22705,16.06,73980.3,1.55,-2.63,-2.23,0,*7A
1495562826.3,22706,16.0,73978.0,1.55,-2.63,-2.23,0,*79
1495562827.54,22707,16.06,73980.5,1.55,-2.67,-2.35,0,*7B
1495562828.76,22708,16.06,73984.3,1.53,-2.67,-2.35,0,*72
1495562830.0,22709,16.06,73982.5,1.55,-2.75,-2.35,0,*76
1495562831.25,22710,16.06,73980.3,1.55,-2.75,-2.35,0,*7E
1495562832.46,22711,16.06,73982.0,1.55,-2.87,-2.43,0,*73
1495562833.68,22712,16.06,73980.3,1.55,-2.79,-2.39,0,*7C
1495562834.92,22713,16.06,73982.3,1.55,-2.67,-2.35,0,*7E
1495562836.16,22714,16.0,73978.0,1.55,-2.75,-2.35,0,*7A
1495562837.41,22715,16.06,73980.5,1.55,-2.75,-2.39,0,*77
1495562838.65,22716,16.06,73982.3,1.55,-2.75,-2.35,0,*78
1495562839.89,22717,16.0,73978.8,1.55,-2.67,-2.39,0,*76
1495562841.14,22718,16.06,73980.3,1.55,-2.63,-2.27,0,*72
1495562842.38,22719,16.06,73982.0,1.55,-2.75,-2.35,0,*77
1495562843.62,22720,16.06,73980.3,1.55,-2.67,-2.35,0,*7E
1495562844.87,22721,16.06,73982.5,1.55,-2.75,-2.35,0,*7C
1495562846.11,22722,16.06,73978.5,1.55,-2.67,-2.35,0,*7C
1495562847.35,22723,16.06,73982.3,1.55,-2.75,-2.35,0,*7E
1495562848.59,22724,16.0,73976.5,1.55,-2.67,-2.35,0,*7A
1495562849.81,22725,16.0,73976.5,1.53,-2.67,-2.35,0,*7D
1495562851.05,22726,16.06,73980.0,1.55,-2.67,-2.35,0,*78
1495562852.29,22727,16.06,73982.0,1.55,-2.67,-2.35,0,*79
1495562853.53,22728,16.06,73980.5,1.55,-2.75,-2.39,0,*79
1495562854.78,22729,16.06,73984.3,1.55,-2.75,-2.35,0,*74
1495562856.02,22730,16.0,73980.8,1.55,-2.75,-2.39,0,*70
1495562857.26,22731,16.0,73978.3,1.55,-2.67,-2.39,0,*72
1495562858.5,22732,16.0,73976.5,1.55,-2.67,-2.35,0,*7D
1495562859.72,22733,16.0,73982.0,1.53,-2.75,-2.35,0,*79
1495562860.96,22734,16.0,73980.3,1.55,-2.75,-2.39,0,*74
1495562862.21,22735,16.0,73978.0,1.55,-2.75,-2.39,0,*75
1495562863.43,22736,16.06,73982.8,1.55,-2.79,-2.39,0,*7A
1495562864.64,22737,16.0,73982.0,1.55,-2.79,-2.43,0,*76
1495562865.86,22738,16.0,73976.3,1.55,-2.79,-2.39,0,*74
1495562867.1,22739,16.0,73980.5,1.55,-2.75,-2.39,0,*79
1495562868.34,22740,16.06,73980.5,1.55,-2.67,-2.35,0,*78
1495562869.56,22741,16.06,73980.0,1.55,-2.79,-2.39,0,*7A
1495562870.81,22742,16.06,73980.5,1.55,-2.75,-2.39,0,*75
1495562872.05,22743,16.0,73978.8,1.55,-2.67,-2.39,0,*77
1495562873.29,22744,16.06,73982.3,1.55,-2.75,-2.39,0,*73
1495562874.54,22745,16.06,73980.0,1.55,-2.75,-2.39,0,*72
1495562875.75,22746,16.0,73980.8,1.55,-2.79,-2.43,0,*70
1495562876.99,22747,16.06,73982.5,1.55,-2.67,-2.35,0,*7F
1495562878.23,22748,16.06,73982.8,1.55,-2.67,-2.35,0,*70
1495562879.45,22749,16.06,73980.3,1.55,-2.79,-2.35,0,*7E
1495562880.7,22750,16.0,73976.5,1.55,-2.75,-2.39,0,*76
1495562881.94,22751,16.0,73978.0,1.55,-2.75,-2.35,0,*7B
1495562883.18,22752,16.06,73980.5,1.55,-2.67,-2.35,0,*7B
1495562884.42,22753,16.06,73980.8,1.55,-2.75,-2.39,0,*75
1495562885.67,22754,16.06,73982.8,1.55,-2.75,-2.39,0,*72
1495562886.91,22755,16.06,73980.3,1.55,-2.75,-2.39,0,*73
1495562888.15,22756,16.06,73982.0,1.55,-2.67,-2.39,0,*73
1495562889.39,22757,16.0,73978.3,1.55,-2.67,-2.27,0,*7D
1495562890.63,22758,16.06,73980.3,1.55,-2.67,-2.35,0,*71
1495562891.87,22759,16.0,73976.0,1.55,-2.75,-2.27,0,*70
1495562893.12,22760,16.0,73978.8,1.55,-2.75,-2.35,0,*79
1495562894.36,22761,16.0,73976.0,1.55,-2.67,-2.35,0,*7B
1495562895.57,22762,16.0,73980.3,1.53,-2.67,-2.27,0,*7D
1495562896.78,22763,16.06,73980.8,1.57,-2.59,-2.31,0,*72
1495562898.03,22764,16.0,73978.8,1.55,-2.63,-2.27,0,*79
1495562899.27,22765,16.0,73976.8,1.55,-2.75,-2.27,0,*7F
1495562900.51,22766,16.0,73980.0,1.55,-2.63,-2.27,0,*7B
1495562901.76,22767,16.0,73982.0,1.55,-2.55,-2.23,0,*7B
1495562903.0,22768,16.06,73984.0,1.55,-2.63,-2.27,0,*75
1495562904.25,22769,16.0,73980.3,1.55,-2.63,-2.27,0,*74
1495562905.49,22770,16.0,73980.8,1.55,-2.63,-2.27,0,*7C
1495562906.7,22771,16.0,73980.8,1.57,-2.59,-2.23,0,*72
1495562907.92,22772,16.0,73980.0,1.57,-2.63,-2.31,0,*7B
1495562909.14,22773,16.0,73980.5,1.57,-2.71,-2.31,0,*79
1495562910.35,22774,16.0,73978.3,1.57,-2.71,-2.35,0,*7A
1495562911.6,22775,16.0,73978.5,1.55,-2.75,-2.39,0,*71
1495562912.82,22776,16.0,73980.8,1.57,-2.63,-2.23,0,*7C
1495562914.06,22777,16.06,73982.0,1.55,-2.75,-2.35,0,*7F
1495562915.28,22778,16.0,73978.5,1.57,-2.71,-2.31,0,*72
1495562916.52,22779,16.06,73980.8,1.55,-2.67,-2.27,0,*71